Regional Weather Roundup
Issued by NWS

Home | Current Version | Previous Version | Graphics & Text | Print | Product List | Glossary On
Versions: 1 2 3 4 5 6 7 8 9 10 11 12 13 14 15 16 17 18 19 20 21 22 23 24 25 26 27 28 29 30 31 32 33 34 35 36 37 38 39 40 41 42 43 44 45 46 47 48 49 50
000
ASUS43 KLMK 241602
RWRKY
KENTUCKY REGIONAL WEATHER ROUNDUP
NATIONAL WEATHER SERVICE LOUISVILLE KY
1100 AM EST SAT FEB 24 2018

NOTE "FAIR" INDICATES FEW OR NO CLOUDS BELOW 12,000 FEET
WITH NO SIGNIFICANT WEATHER AND/OR OBSTRUCTIONS TO VISIBILITY.

KYZ001>023-026-027-061>063-070>075-241700-
WESTERN AND SOUTH CENTRAL KENTUCKY

CITY           SKY/WX    TMP DP  RH WIND       PRES   REMARKS
PADUCAH        LGT RAIN  52  51  97 E8        29.96F FOG
HENDERSON      LGT RAIN  51  50  96 E8        30.02F
OWENSBORO      LGT RAIN  52  50  93 E13       30.04F FOG
HOPKINSVILLE   PTSUNNY   68  65  91 S14       30.01F
BOWLING GREEN  CLOUDY    67  64  90 SW12      30.03F
GLASGOW        NOT AVBL
$$

KYZ024-025-028>034-038-045-046-053-241700-
NORTH CENTRAL KENTUCKY

CITY           SKY/WX    TMP DP  RH WIND       PRES   REMARKS
LOUISVILLE/SDF LGT RAIN  51  48  89 NE15G25   30.07F
LOUISVILLE/LOU LGT RAIN  51  50  96 NE15G24   30.08F FOG
FORT KNOX      CLOUDY    50  50 100 N13       30.07S
$$

KYZ035>037-039>044-047>052-055>060-089>105-241700-
NORTHEAST KENTUCKY

CITY           SKY/WX    TMP DP  RH WIND       PRES   REMARKS
LEXINGTON      LGT RAIN  58  55  90 NE3       30.04S FOG
COVINGTON      LGT RAIN  48  47  96 E13       30.10F FOG
FRANKFORT      LGT RAIN  53  50  89 N13       30.07R FOG
$$

KYZ054-064>069-076>088-106>120-241700-
SOUTHEAST KENTUCKY

CITY           SKY/WX    TMP DP  RH WIND       PRES   REMARKS
JACKSON        CLOUDY    63  60  90 S7        30.05F
LONDON         LGT RAIN  64  61  90 S12       30.07S
SOMERSET       NOT AVBL
MIDDLESBORO    CLOUDY    66  61  85 S9G16     30.12S
MONTICELLO     LGT RAIN  65  62  90 SW18G24   30.09S
$$




USA.gov is the U.S. government's official web portal to all federal, state and local government web resources and services.